User: anonymous   Login
Location: Unspecified
(0.0000°N, 0.0000°E)
Time: 20:25:39
(UTC+00:00)
Language:

Tiros 1 - Orbit

View from above orbital plane
View from above orbital plane
View from above satellite
View from above satellite

Ground track
Ground track

The orbit data is extracted from the following two-line orbital elements,

1    29U 60002B   24146.86840168  .00001252  00000-0  20759-3 0  9993
2    29  48.3790 354.5349 0023826 271.7422  88.0762 14.76346227430979
Epoch (UTC): 25 May 2024 20:50:29
Eccentricity: 0.0023826
inclination: 48.3790°
perigee height: 624 km
apogee height: 657 km
right ascension of ascending node: 354.5349°
argument of perigee: 271.7422°
revolutions per day: 14.76346227
mean anomaly at epoch: 88.0762°
orbit number at epoch: 43097

The dashed part of the orbit path shows where the satellite is in the earth's shadow,  

DLR